Temp
28 27 28 27 26 25 26 26 25 25 24 24 24 23 23 23 22 22 21 21 21 20 20 21 21 20 20 20 20 20 20 19 19
27 27 26 26 25 25 25 25 25 24 24 25 25 24 23 23 23 22 22 22 21 21 21 21 21 20 20 21 20 20 20 20 20
25 27 26 25 25 25 25 25 25 25 24 24 24 24 22 22 23 23 22 21 21 21 21 21 21 20 21 21 21 21 20 20 20
24 25 25 26 25 25 25 24 24 25 24 24 22 23 21 23 22 24 23 22 21 21 21 21 21 21 21 21 21 21 21 20 20
27 27 26 26 26 25 25 25 24 23 23 24 23 22 22 22 23 24 23 23 22 22 21 21 21 21 21 21 21 21 21 20 21
25 26 25 25 25 26 26 24 24 22 23 22 25 24 23 23 24 24 23 23 23 22 21 21 21 21 21 21 21 21 21 20 20
24 25 24 25 26 26 27 26 26 26 28 27 26 26 26 25 24 25 24 23 23 23 22 22 21 21 22 21 21 21 21 20 20
23 24 25 26 26 25 25 25 24 23 24 25 26 27 26 26 25 25 24 23 23 23 23 23 22 22 22 22 21 21 21 20 20
25 25 26 26 25 25 25 24 24 23 23 24 25 25 24 24 24 24 24 24 24 23 23 24 23 23 23 22 22 21 20 20 20
24 25 26 25 25 26 25 24 23 25 24 23 23 22 22 23 23 23 24 24 24 24 24 24 24 24 23 23 22 21 21 20 20
23 24 25 25 25 24 24 23 24 25 24 23 22 22 22 22 23 22 24 24 23 24 24 24 24 24 24 23 22 22 21 20 20
24 23 23 24 24 24 24 24 24 23 23 24 22 22 22 22 22 22 22 22 23 24 24 24 24 24 23 23 23 22 21 20 20
24 24 24 24 24 24 24 25 25 24 24 23 23 23 23 22 22 22 22 22 21 21 22 23 23 24 24 24 24 23 21 20 20
23 23 23 23 24 24 24 24 24 24 23 23 22 22 22 22 22 22 23 22 23 22 21 22 23 24 23 23 23 22 21 20 20
23 23 23 23 23 24 24 23 23 23 23 23 22 22 22 22 22 22 22 22 21 22 21 21 22 22 23 23 22 21 19 19 18
21 22 22 22 23 23 22 22 22 22 23 22 22 22 22 21 21 21 21 21 21 21 21 21 20 20 20 21 23 21 22 19 18
20 20 20 20 20 21 21 22 22 22 22 21 21 21 20 20 21 21 20 20 20 20 20 20 20 20 19 19 20 21 20 19 17
18 19 19 19 19 19 20 21 21 21 21 21 21 21 20 20 20 20 20 20 20 20 20 20 20 20 20 20 21 21 21 19 18
15 16 17 18 18 18 19 19 20 21 21 20 20 20 20 20 20 20 20 20 20 20 20 20 19 19 19 18 19 20 20 20 19
14 15 15 15 16 17 17 18 19 20 20 20 20 20 19 19 19 19 20 19 19 18 19 18 18 18 18 18 21 22 19 19 20
Height
1479 1482 1487 1492 1500 1504 1510 1516 1518 1524 1528 1531 1534 1538 1541 1545 1550 1554 1557 1560 1563 1565 1568 1570 1572 1573 1574 1574 1575 1575 1575 1575 1575
1481 1485 1490 1496 1500 1504 1508 1511 1514 1519 1521 1523 1528 1537 1544 1546 1546 1549 1551 1555 1558 1560 1563 1567 1569 1569 1571 1571 1570 1572 1573 1572 1571
1483 1486 1491 1495 1499 1502 1505 1508 1511 1515 1518 1522 1531 1537 1542 1545 1547 1546 1547 1551 1554 1556 1558 1562 1563 1566 1567 1568 1567 1569 1569 1569 1568
1488 1489 1492 1496 1499 1502 1505 1509 1510 1512 1513 1518 1530 1531 1533 1535 1543 1542 1541 1544 1549 1552 1555 1557 1559 1560 1562 1563 1563 1565 1565 1566 1564
1492 1494 1495 1497 1499 1503 1508 1507 1505 1510 1513 1515 1522 1527 1530 1531 1537 1536 1537 1539 1542 1546 1549 1552 1554 1556 1557 1557 1558 1560 1561 1561 1561
1496 1495 1496 1499 1502 1505 1505 1506 1505 1507 1510 1518 1512 1516 1520 1524 1526 1529 1533 1535 1537 1540 1543 1546 1548 1550 1550 1551 1553 1554 1555 1555 1557
1497 1498 1501 1503 1505 1507 1507 1504 1505 1506 1504 1506 1510 1511 1513 1516 1520 1525 1529 1532 1534 1535 1537 1539 1540 1542 1544 1545 1547 1548 1549 1550 1551
1502 1501 1502 1503 1503 1505 1506 1505 1507 1509 1510 1508 1507 1508 1510 1513 1518 1524 1527 1528 1530 1532 1533 1534 1535 1536 1537 1539 1541 1542 1545 1545 1546
1499 1498 1499 1502 1503 1504 1506 1510 1511 1512 1511 1509 1506 1506 1511 1517 1521 1523 1524 1525 1526 1529 1529 1530 1530 1531 1532 1534 1535 1537 1539 1541 1542
1501 1498 1499 1502 1504 1505 1505 1507 1512 1516 1514 1512 1511 1510 1513 1518 1522 1522 1520 1520 1521 1522 1524 1527 1525 1527 1528 1529 1531 1532 1535 1536 1538
1507 1505 1502 1502 1504 1506 1506 1511 1513 1513 1513 1514 1515 1516 1517 1516 1517 1520 1516 1514 1514 1516 1517 1519 1521 1522 1523 1525 1528 1529 1531 1533 1534
1508 1509 1508 1507 1506 1508 1510 1512 1512 1514 1512 1510 1515 1515 1515 1516 1515 1513 1510 1510 1510 1508 1509 1510 1512 1515 1518 1520 1523 1525 1526 1527 1528
1510 1509 1509 1509 1509 1509 1509 1510 1510 1509 1509 1507 1508 1509 1507 1508 1507 1506 1507 1506 1505 1504 1504 1502 1505 1507 1509 1512 1512 1515 1517 1518 1519
1509 1510 1511 1510 1510 1510 1509 1507 1506 1506 1505 1505 1504 1504 1502 1500 1500 1499 1498 1495 1495 1493 1495 1497 1497 1500 1502 1504 1506 1511 1512 1514 1516
1506 1506 1507 1507 1507 1505 1504 1504 1504 1502 1501 1500 1499 1498 1497 1497 1496 1494 1493 1490 1488 1488 1488 1489 1489 1492 1493 1493 1495 1499 1503 1507 1510
1503 1503 1502 1501 1499 1499 1499 1499 1498 1497 1498 1498 1497 1496 1494 1493 1491 1490 1487 1484 1482 1480 1482 1483 1482 1482 1482 1482 1483 1487 1488 1498 1504
1500 1498 1497 1496 1494 1492 1491 1491 1491 1491 1492 1491 1489 1488 1487 1487 1485 1483 1481 1478 1477 1476 1475 1475 1475 1476 1476 1477 1477 1484 1490 1500 1481
1494 1491 1489 1488 1487 1485 1485 1485 1483 1482 1482 1482 1480 1480 1480 1480 1479 1476 1474 1472 1470 1469 1468 1467 1467 1468 1468 1469 1466 1470 1482 1485 1485
1486 1483 1481 1478 1475 1475 1473 1473 1473 1472 1472 1472 1471 1471 1471 1471 1470 1468 1466 1464 1463 1461 1460 1460 1461 1462 1463 1464 1467 1469 1470 1476 1476
1476 1473 1471 1467 1463 1460 1459 1458 1458 1458 1461 1461 1460 1459 1460 1461 1460 1459 1457 1456 1455 1453 1453 1453 1454 1456 1457 1460 1463 1463 1466 1475 1475
Wind_Speed
22 30 34 35 34 38 41 42 40 39 39 37 33 34 29 22 24 24 23 23 25 24 25 23 20 22 22 20 19 20 22 24 24
16 20 23 23 28 35 37 40 42 39 37 39 35 32 28 24 21 26 26 24 24 26 24 21 22 21 20 21 23 22 21 21 22
16 16 20 22 26 32 33 37 39 40 40 43 36 33 29 29 23 24 26 29 28 27 25 25 23 24 20 20 18 19 22 25 26
17 18 21 23 23 27 30 28 30 33 39 39 33 33 19 31 38 18 23 30 31 30 28 27 27 25 22 23 21 21 23 23 24
16 17 21 24 22 24 22 25 27 27 32 32 24 25 28 34 34 26 23 25 31 32 32 30 31 30 28 27 25 23 21 18 18
20 26 27 29 28 24 21 7 5 21 22 9 11 20 22 24 28 29 30 29 25 28 31 32 32 33 33 33 33 32 30 27 21
24 24 25 25 24 18 14 4 9 5 11 14 15 18 19 21 26 28 31 27 23 23 24 26 28 29 32 33 30 27 26 24 21
19 22 21 19 20 21 14 12 7 7 9 15 19 20 23 22 25 25 27 27 22 22 21 20 21 22 25 28 28 28 26 24 22
25 24 20 16 15 16 21 17 11 9 12 16 13 14 18 20 23 23 23 25 24 23 20 20 20 21 22 21 24 23 22 21 19
24 25 22 18 16 13 15 21 7 6 8 11 11 3 5 7 17 25 27 28 30 29 26 23 20 19 19 20 19 18 17 17 17
21 20 22 20 17 16 15 15 7 5 3 6 4 5 5 13 26 19 21 25 27 28 30 31 30 26 22 20 18 16 17 16 19
13 15 16 18 17 15 13 8 7 6 5 5 6 5 6 8 12 15 13 16 21 25 27 27 28 31 32 27 22 19 18 19 22
1 6 11 11 11 12 10 8 10 10 11 11 14 18 17 17 19 21 23 22 20 19 24 28 27 29 31 29 28 23 22 23 23
6 6 9 8 9 10 11 10 8 8 9 11 13 15 19 20 20 22 26 26 25 24 24 25 28 31 31 31 30 25 23 24 25
9 10 12 15 18 19 19 17 15 11 13 16 19 22 22 22 22 24 25 26 26 23 24 23 24 25 30 32 31 28 25 25 23
11 14 16 21 25 25 24 22 19 17 20 20 22 25 26 25 24 24 24 26 25 24 21 19 22 26 33 35 37 35 30 22 23
23 22 20 18 17 22 27 25 24 23 24 22 23 25 24 25 24 24 24 25 24 23 20 21 23 29 34 31 24 20 17 32 7
30 32 32 29 28 30 29 28 28 28 28 26 26 27 27 28 26 27 28 27 26 25 20 21 24 27 29 27 28 38 27 33 27
31 34 36 40 39 36 34 38 41 37 33 31 31 32 31 31 29 27 28 28 28 26 24 19 19 21 23 25 22 24 27 30 23
30 33 37 41 44 45 45 37 38 39 36 33 34 36 36 34 31 30 29 28 27 27 22 16 15 18 21 19 15 22 31 26 28
Wind_Direction
189 200 213 215 205 209 211 211 212 215 219 218 223 226 228 236 236 237 239 234 234 238 242 245 248 253 254 254 254 252 253 255 259
175 194 202 196 195 206 213 213 214 217 219 219 226 229 234 241 242 237 239 238 236 240 244 244 245 251 251 247 253 257 257 259 260
124 176 184 189 197 204 214 215 215 219 227 226 225 226 234 246 254 244 245 245 242 240 241 243 245 249 248 249 249 254 260 262 261
111 138 160 181 194 204 210 212 220 224 229 227 225 232 217 240 243 254 248 248 246 244 244 243 246 248 250 250 255 261 262 263 270
146 157 164 175 189 198 202 223 228 224 231 232 222 236 239 241 241 253 255 255 247 247 248 248 249 251 254 257 256 258 267 261 268
152 160 163 170 173 179 195 232 157 198 204 233 262 264 257 252 251 255 255 257 260 250 249 251 250 250 252 255 257 260 265 269 271
161 166 170 169 179 193 215 192 112 172 222 274 287 263 256 257 253 257 256 257 257 253 250 249 249 248 249 251 255 257 260 261 266
162 165 174 181 184 181 173 145 84 26 324 304 290 275 255 253 250 253 256 253 251 250 250 250 251 252 249 248 249 250 254 258 264
172 172 161 172 190 189 165 134 56 6 350 334 316 255 256 265 269 264 262 261 261 258 254 254 257 257 255 255 252 254 257 257 257
176 167 163 176 191 195 198 199 211 311 327 1 6 357 189 297 277 269 270 271 269 265 267 265 259 261 257 255 253 251 251 252 237
175 165 159 154 158 162 163 176 198 235 276 317 34 106 146 210 258 278 269 267 257 263 266 268 268 263 260 258 255 251 250 245 237
177 181 176 168 160 163 171 184 205 265 294 283 290 279 268 261 264 287 291 277 268 263 264 262 268 268 262 257 258 254 249 241 232
262 196 188 193 184 192 202 224 267 284 301 301 296 299 295 291 291 294 290 282 284 283 268 269 270 268 263 257 256 249 243 238 228
241 233 210 217 238 254 259 252 260 288 308 304 300 303 309 309 306 300 298 297 283 280 285 278 265 266 264 260 255 250 247 243 232
240 236 251 262 256 271 277 268 261 271 305 317 317 313 309 306 307 303 297 297 295 275 271 283 272 264 254 248 241 228 225 227 234
282 271 278 272 263 259 254 245 251 266 276 287 299 298 297 297 299 302 302 297 297 294 271 272 268 258 251 242 235 225 228 220 228
296 295 289 286 289 261 243 246 254 259 267 279 288 290 290 290 297 301 309 301 297 290 279 259 260 251 249 236 236 244 291 280 223
288 286 284 283 281 274 265 259 261 264 271 273 275 278 282 284 291 301 306 307 301 292 279 259 263 262 263 244 237 237 241 219 240
298 293 288 280 274 270 269 260 260 265 264 265 269 270 273 278 283 294 304 307 306 294 282 258 259 262 259 233 241 236 212 209 194
312 302 291 284 281 277 272 270 262 253 257 258 264 268 270 273 279 290 296 302 302 298 285 262 258 258 245 214 209 204 204 205 201